Bloomington, IN

4:56 AM EST on December 08, 2016 (GMT -0500)
Monroe County

Weather History for KBMG - April, 2014

Change the Weather History Date:

Saturday, April 26, 2014

  Actual Average Record
Temperature  
Mean Temperature 66 °F 57 °F  
Max Temperature 79 °F 68 °F 83 °F (2016)
Min Temperature 52 °F 46 °F 32 °F (2013)
Degree Days  
Heating Degree Days 0 9  
Month to date heating degree days 291 325  
Since 1 July heating degree days 5690 5081  
Cooling Degree Days 1 1  
Month to date cooling degree days 7 18  
Year to date cooling degree days 7 21  
Growing Degree Days 15 (Base 50)    
Moisture  
Dew Point 42 °F    
Average Humidity 51    
Maximum Humidity 77    
Minimum Humidity 25    
Precipitation  
Precipitation 0.00 in 0.17 in 1.11 in (2016)
Month to date precipitation 6.01 4.04  
Year to date precipitation 12.60 13.99  
Sea Level Pressure  
Sea Level Pressure 29.91 in    
Wind  
Wind Speed 8 mph (WSW)    
Max Wind Speed 18 mph    
Max Gust Speed 24 mph    
Visibility 10 miles    
Events      
T = Trace of Precipitation, MM = Missing Value Source: NWS Daily Summary

Daily Weather History Graph

Daily Weather History Graph

Search for Another Location

Airport or City:

Trip Planner

Search our weather history database for the weather conditions in past years. The results will help you decide how hot, cold, wet, or windy it might be!

Date:

Astronomy

Apr. 26, 2014 Rise Set
Actual Time 6:54 AM EDT 8:34 PM EDT
Civil Twilight 6:26 AM EDT 9:03 PM EDT
Nautical Twilight 5:51 AM EDT 9:37 PM EDT
Astronomical Twilight 5:15 AM EDT 10:14 PM EDT
Moon 5:16 AM EDT (4/26) 6:03 PM EDT (4/26)
Length of Visible Light 14h 37m
Length of Day
13h 40m
Waning Crescent, 8% of the Moon is Illuminated
Apr 26
Waning Crescent
Apr 29
New
May 6
First Quarter
May 14
Full
May 21
Last Quarter

Hourly Weather History & Observations

Time (EDT) Temp. Dew Point Humidity Pressure Visibility Wind Dir Wind Speed Gust Speed Precip Events Conditions
12:53 AM 55.0 °F 39.9 °F 57% 29.91 in 10.0 mi SW 5.8 mph - N/A   Clear
1:53 AM 54.0 °F 39.9 °F 59% 29.92 in 10.0 mi SW 6.9 mph - N/A   Clear
2:53 AM 54.0 °F 39.9 °F 59% 29.91 in 10.0 mi SW 6.9 mph - N/A   Clear
3:53 AM 52.0 °F 39.9 °F 63% 29.89 in 10.0 mi SW 6.9 mph - N/A   Clear
4:53 AM 54.0 °F 39.0 °F 57% 29.90 in 10.0 mi SW 8.1 mph - N/A   Clear
5:53 AM 54.0 °F 37.9 °F 55% 29.90 in 10.0 mi SW 6.9 mph - N/A   Clear
6:53 AM 53.1 °F 37.9 °F 57% 29.91 in 10.0 mi SW 8.1 mph - N/A   Clear
7:53 AM 57.0 °F 39.9 °F 53% 29.92 in 10.0 mi SW 8.1 mph - N/A   Clear
8:53 AM 63.0 °F 41.0 °F 45% 29.93 in 10.0 mi WSW 10.4 mph - N/A   Clear
9:53 AM 66.0 °F 42.1 °F 42% 29.93 in 10.0 mi WSW 10.4 mph - N/A   Clear
10:53 AM 69.1 °F 43.0 °F 39% 29.93 in 10.0 mi West 13.8 mph - N/A   Clear
11:53 AM 73.0 °F 45.0 °F 37% 29.93 in 10.0 mi WSW 12.7 mph - N/A   Clear
12:53 PM 75.9 °F 43.0 °F 31% 29.92 in 10.0 mi WSW 15.0 mph 19.6 mph N/A   Clear
1:53 PM 77.0 °F 43.0 °F 30% 29.91 in 10.0 mi West 12.7 mph 19.6 mph N/A   Clear
2:53 PM 78.1 °F 39.0 °F 25% 29.91 in 10.0 mi West 15.0 mph - N/A   Clear
3:53 PM 78.1 °F 39.9 °F 25% 29.90 in 10.0 mi West 10.4 mph - N/A   Clear
4:53 PM 77.0 °F 41.0 °F 28% 29.89 in 10.0 mi West 10.4 mph 18.4 mph N/A   Clear
5:53 PM 77.0 °F 42.1 °F 29% 29.89 in 10.0 mi Variable 6.9 mph - N/A   Clear
6:53 PM 75.0 °F 42.1 °F 31% 29.88 in 10.0 mi West 8.1 mph - N/A   Clear
7:53 PM 71.1 °F 42.1 °F 35% 29.87 in 10.0 mi SW 5.8 mph - N/A   Clear
8:53 PM 66.0 °F 44.1 °F 45% 29.88 in 10.0 mi Calm Calm - N/A   Clear
9:53 PM 61.0 °F 44.1 °F 54% 29.89 in 10.0 mi Calm Calm - N/A   Clear
10:53 PM 57.9 °F 45.0 °F 62% 29.92 in 10.0 mi Calm Calm - N/A   Clear
11:53 PM 53.1 °F 46.0 °F 77% 29.92 in 10.0 mi Calm Calm - N/A   Clear